Time,TemperatureF,DewpointF,PressureIn,WindDirection,WindDirectionDegrees,WindSpeedMPH,WindSpeedGustMPH,Humidity,HourlyPrecipIn,Conditions,Clouds,dailyrainin,SoftwareType,DateUTC
2013-05-08 07:52:00,42.9,24.6,29.77,North,0,0.0,0.0,48,0.00,,---,0.00,VWS V14.00,2013-05-08 12:52:00,
2013-05-08 07:53:00,59.3,26.2,29.76,WNW,294,0.0,0.0,28,0.00,,---,0.00,VWS V14.00,2013-05-08 12:53:00,
2013-05-08 07:57:00,61.0,26.8,29.76,WNW,285,0.0,7.0,27,0.00,,---,0.00,VWS V14.00,2013-05-08 12:57:00,
2013-05-08 07:58:00,61.0,26.8,29.76,WNW,287,0.0,7.0,27,0.00,,---,0.00,VWS V14.00,2013-05-08 12:58:00,
2013-05-08 08:02:00,61.5,27.2,29.73,WNW,294,7.0,7.0,27,0.00,,---,0.00,VWS V14.00,2013-05-08 13:02:00,
2013-05-08 08:03:00,61.5,27.2,29.73,WNW,295,5.0,7.0,27,0.00,,---,0.00,VWS V14.00,2013-05-08 13:03:00,
2013-05-08 08:08:00,62.9,27.5,29.73,WNW,285,0.0,11.0,26,0.00,,---,0.00,VWS V14.00,2013-05-08 13:08:00,
2013-05-08 08:13:00,63.7,27.2,29.73,NW,306,0.0,11.0,25,0.00,,---,0.00,VWS V14.00,2013-05-08 13:13:00,
2013-05-08 08:14:00,63.9,27.4,29.73,NW,306,0.0,11.0,25,0.00,,---,0.00,VWS V14.00,2013-05-08 13:14:00,
2013-05-08 08:18:00,64.3,26.8,29.73,NW,312,11.0,11.0,24,0.00,,---,0.00,VWS V14.00,2013-05-08 13:18:00,
2013-05-08 08:19:00,64.3,27.8,29.73,NW,319,0.0,12.0,25,0.00,,---,0.00,VWS V14.00,2013-05-08 13:19:00,
2013-05-08 08:23:00,64.7,27.1,29.73,NW,304,0.0,12.0,24,0.00,,---,0.00,VWS V14.00,2013-05-08 13:23:00,
2013-05-08 08:24:00,64.7,27.1,29.73,NW,304,0.0,12.0,24,0.00,,---,0.00,VWS V14.00,2013-05-08 13:24:00,
2013-05-08 08:28:00,65.0,27.4,29.73,NW,316,6.0,12.0,24,0.00,,---,0.00,VWS V14.00,2013-05-08 13:28:00,
2013-05-08 08:29:00,65.2,27.5,29.74,NW,316,0.0,12.0,24,0.00,,---,0.00,VWS V14.00,2013-05-08 13:29:00,
2013-05-08 08:33:00,65.5,28.8,29.74,NW,312,0.0,12.0,25,0.00,,---,0.00,VWS V14.00,2013-05-08 13:33:00,
2013-05-08 08:34:00,65.5,28.8,29.74,NW,311,6.0,12.0,25,0.00,,---,0.00,VWS V14.00,2013-05-08 13:34:00,
2013-05-08 08:39:00,65.6,28.9,29.74,NNW,330,7.0,12.0,25,0.00,,---,0.00,VWS V14.00,2013-05-08 13:39:00,
2013-05-08 08:44:00,65.6,27.9,29.73,NW,312,8.0,13.0,24,0.00,,---,0.00,VWS V14.00,2013-05-08 13:44:00,
2013-05-08 08:45:00,65.8,28.0,29.73,NNW,329,0.0,13.0,24,0.00,,---,0.00,VWS V14.00,2013-05-08 13:45:00,
2013-05-08 08:49:00,66.0,29.2,29.73,NNW,329,8.0,13.0,25,0.00,,---,0.00,VWS V14.00,2013-05-08 13:49:00,
2013-05-08 08:50:00,66.1,29.3,29.73,NW,322,0.0,13.0,25,0.00,,---,0.00,VWS V14.00,2013-05-08 13:50:00,
2013-05-08 08:51:00,66.1,29.3,29.73,NW,318,11.0,13.0,25,0.00,,---,0.00,VWS V14.00,2013-05-08 13:51:00,
2013-05-08 08:54:00,66.4,29.5,29.73,WNW,298,7.0,13.0,25,0.00,,---,0.00,VWS V14.00,2013-05-08 13:54:00,
2013-05-08 08:55:00,66.3,29.5,29.73,WNW,294,11.0,13.0,25,0.00,,---,0.00,VWS V14.00,2013-05-08 13:55:00,
2013-05-08 08:56:00,66.3,28.5,29.73,NW,312,6.0,13.0,24,0.00,,---,0.00,VWS V14.00,2013-05-08 13:56:00,
2013-05-08 08:59:00,66.4,28.5,29.72,NW,311,9.0,13.0,24,0.00,,---,0.00,VWS V14.00,2013-05-08 13:59:00,
2013-05-08 09:00:00,66.6,28.7,29.72,WNW,296,7.0,10.0,24,0.00,,---,0.00,VWS V14.00,2013-05-08 14:00:00,
2013-05-08 09:01:00,66.6,28.7,29.72,NW,316,7.0,13.0,24,0.00,,---,0.00,VWS V14.00,2013-05-08 14:01:00,
2013-05-08 09:04:00,66.8,28.9,29.72,NW,325,0.0,13.0,24,0.00,,---,0.00,VWS V14.00,2013-05-08 14:04:00,
2013-05-08 09:05:00,66.8,28.9,29.72,NW,322,1.0,13.0,24,0.00,,---,0.00,VWS V14.00,2013-05-08 14:05:00,
2013-05-08 09:06:00,66.9,29.0,29.72,NW,323,7.0,13.0,24,0.00,,---,0.00,VWS V14.00,2013-05-08 14:06:00,
2013-05-08 09:07:00,66.9,29.0,29.72,NW,322,7.0,13.0,24,0.00,,---,0.00,VWS V14.00,2013-05-08 14:07:00,
2013-05-08 09:09:00,67.1,28.1,29.72,NW,311,6.0,13.0,23,0.00,,---,0.00,VWS V14.00,2013-05-08 14:09:00,
2013-05-08 09:10:00,67.1,28.1,29.72,NW,316,12.0,13.0,23,0.00,,---,0.00,VWS V14.00,2013-05-08 14:10:00,
2013-05-08 09:11:00,67.1,29.1,29.72,NW,309,10.0,13.0,24,0.00,,---,0.00,VWS V14.00,2013-05-08 14:11:00,
2013-05-08 09:12:00,67.1,28.1,29.72,NNW,328,8.0,13.0,23,0.00,,---,0.00,VWS V14.00,2013-05-08 14:12:00,
2013-05-08 09:14:00,67.3,29.3,29.77,WNW,301,8.0,13.0,24,0.00,,---,0.00,VWS V14.00,2013-05-08 14:14:00,
2013-05-08 09:15:00,67.3,28.3,29.77,WNW,299,8.0,13.0,23,0.00,,---,0.00,VWS V14.00,2013-05-08 14:15:00,
2013-05-08 09:16:00,67.3,28.3,29.77,NNW,340,10.0,13.0,23,0.00,,---,0.00,VWS V14.00,2013-05-08 14:16:00,
2013-05-08 09:17:00,67.3,28.3,29.77,NW,323,11.0,14.0,23,0.00,,---,0.00,VWS V14.00,2013-05-08 14:17:00,
2013-05-08 09:20:00,67.3,28.3,29.77,NW,323,8.0,17.0,23,0.00,,---,0.00,VWS V14.00,2013-05-08 14:20:00,
2013-05-08 09:21:00,67.3,29.3,29.77,NNW,332,11.0,17.0,24,0.00,,---,0.00,VWS V14.00,2013-05-08 14:21:00,
2013-05-08 09:22:00,67.3,28.3,29.77,NW,319,8.0,17.0,23,0.00,,---,0.00,VWS V14.00,2013-05-08 14:22:00,
2013-05-08 09:25:00,67.6,28.5,29.77,NW,311,5.0,17.0,23,0.00,,---,0.00,VWS V14.00,2013-05-08 14:25:00,
2013-05-08 09:26:00,67.6,28.5,29.77,NW,315,7.0,17.0,23,0.00,,---,0.00,VWS V14.00,2013-05-08 14:26:00,
2013-05-08 09:27:00,67.8,28.7,29.77,NW,315,9.0,17.0,23,0.00,,---,0.00,VWS V14.00,2013-05-08 14:27:00,
2013-05-08 09:30:00,67.9,28.8,29.76,NW,309,5.0,8.0,23,0.00,,---,0.00,VWS V14.00,2013-05-08 14:30:00,
2013-05-08 09:31:00,67.9,29.8,29.76,NNW,335,7.0,10.0,24,0.00,,---,0.00,VWS V14.00,2013-05-08 14:31:00,
2013-05-08 09:32:00,68.3,30.1,29.76,NW,311,8.0,10.0,24,0.00,,---,0.00,VWS V14.00,2013-05-08 14:32:00,
2013-05-08 09:35:00,68.3,29.1,29.76,NW,316,7.0,14.0,23,0.00,,---,0.00,VWS V14.00,2013-05-08 14:35:00,
2013-05-08 09:36:00,68.1,28.9,29.76,NW,326,12.0,14.0,23,0.00,,---,0.00,VWS V14.00,2013-05-08 14:36:00,
2013-05-08 09:38:00,68.1,28.9,29.76,WNW,296,3.0,14.0,23,0.00,,---,0.00,VWS V14.00,2013-05-08 14:38:00,
2013-05-08 09:40:00,68.4,30.2,29.76,NW,320,8.0,15.0,24,0.00,,---,0.00,VWS V14.00,2013-05-08 14:40:00,
2013-05-08 09:41:00,68.3,29.1,29.76,NW,304,14.0,15.0,23,0.00,,---,0.00,VWS V14.00,2013-05-08 14:41:00,
2013-05-08 09:43:00,68.1,28.9,29.76,NW,319,8.0,15.0,23,0.00,,---,0.00,VWS V14.00,2013-05-08 14:43:00,
2013-05-08 09:45:00,68.1,27.9,29.77,NW,306,5.0,15.0,22,0.00,,---,0.00,VWS V14.00,2013-05-08 14:45:00,
2013-05-08 09:46:00,68.3,28.0,29.77,WNW,302,3.0,15.0,22,0.00,,---,0.00,VWS V14.00,2013-05-08 14:46:00,
2013-05-08 09:48:00,68.4,29.2,29.77,NNW,347,1.0,15.0,23,0.00,,---,0.00,VWS V14.00,2013-05-08 14:48:00,
2013-05-08 09:50:00,68.8,28.4,29.77,North,350,7.0,15.0,22,0.00,,---,0.00,VWS V14.00,2013-05-08 14:50:00,
2013-05-08 09:51:00,68.8,28.4,29.77,North,349,10.0,15.0,22,0.00,,---,0.00,VWS V14.00,2013-05-08 14:51:00,
2013-05-08 09:52:00,68.8,28.4,29.77,NW,306,13.0,15.0,22,0.00,,---,0.00,VWS V14.00,2013-05-08 14:52:00,
2013-05-08 09:53:00,68.6,27.1,29.77,NW,319,9.0,15.0,21,0.00,,---,0.00,VWS V14.00,2013-05-08 14:53:00,
2013-05-08 09:55:00,69.1,29.8,29.77,WNW,288,9.0,15.0,23,0.00,,---,0.00,VWS V14.00,2013-05-08 14:55:00,
2013-05-08 09:56:00,69.4,28.9,29.77,WNW,295,0.0,15.0,22,0.00,,---,0.00,VWS V14.00,2013-05-08 14:56:00,
2013-05-08 09:57:00,69.4,28.9,29.77,WNW,295,0.0,15.0,22,0.00,,---,0.00,VWS V14.00,2013-05-08 14:57:00,
2013-05-08 09:58:00,69.3,28.9,29.77,NW,305,12.0,17.0,22,0.00,,---,0.00,VWS V14.00,2013-05-08 14:58:00,
2013-05-08 10:01:00,69.3,28.9,29.77,NW,312,12.0,13.0,22,0.00,,---,0.00,VWS V14.00,2013-05-08 15:01:00,
2013-05-08 10:02:00,69.4,28.9,29.77,WNW,295,0.0,13.0,22,0.00,,---,0.00,VWS V14.00,2013-05-08 15:02:00,
2013-05-08 10:04:00,69.6,28.0,29.77,NW,313,9.0,16.0,21,0.00,,---,0.00,VWS V14.00,2013-05-08 15:04:00,
2013-05-08 10:06:00,69.3,28.9,29.77,WNW,287,11.0,18.0,22,0.00,,---,0.00,VWS V14.00,2013-05-08 15:06:00,
2013-05-08 10:07:00,69.3,29.9,29.77,NW,309,11.0,18.0,23,0.00,,---,0.00,VWS V14.00,2013-05-08 15:07:00,
2013-05-08 10:09:00,69.6,29.1,29.77,WNW,296,6.0,18.0,22,0.00,,---,0.00,VWS V14.00,2013-05-08 15:09:00,
2013-05-08 10:11:00,69.9,29.4,29.77,NW,313,11.0,18.0,22,0.00,,---,0.00,VWS V14.00,2013-05-08 15:11:00,
2013-05-08 10:12:00,69.6,29.1,29.77,WNW,298,9.0,18.0,22,0.00,,---,0.00,VWS V14.00,2013-05-08 15:12:00,
2013-05-08 10:14:00,69.9,29.4,29.79,WNW,292,8.0,18.0,22,0.00,,---,0.00,VWS V14.00,2013-05-08 15:14:00,
2013-05-08 10:16:00,70.3,29.7,29.79,WNW,296,6.0,18.0,22,0.00,,---,0.00,VWS V14.00,2013-05-08 15:16:00,
2013-05-08 10:17:00,70.1,29.5,29.79,WNW,295,0.0,18.0,22,0.00,,---,0.00,VWS V14.00,2013-05-08 15:17:00,
2013-05-08 10:20:00,70.6,28.8,29.79,WNW,294,8.0,18.0,21,0.00,,---,0.00,VWS V14.00,2013-05-08 15:20:00,
2013-05-08 10:22:00,70.6,29.9,29.79,NW,311,7.0,18.0,22,0.00,,---,0.00,VWS V14.00,2013-05-08 15:22:00,
2013-05-08 10:25:00,70.4,28.6,29.79,West,277,9.0,18.0,21,0.00,,---,0.00,VWS V14.00,2013-05-08 15:25:00,
2013-05-08 10:27:00,70.6,28.8,29.79,WNW,296,8.0,18.0,21,0.00,,---,0.00,VWS V14.00,2013-05-08 15:27:00,
2013-05-08 10:28:00,70.4,28.6,29.79,West,272,7.0,18.0,21,0.00,,---,0.00,VWS V14.00,2013-05-08 15:28:00,
2013-05-08 10:30:00,70.8,29.0,29.79,West,278,0.0,7.0,21,0.00,,---,0.00,VWS V14.00,2013-05-08 15:30:00,
2013-05-08 10:32:00,70.9,30.2,29.79,NW,311,12.0,12.0,22,0.00,,---,0.00,VWS V14.00,2013-05-08 15:32:00,
2013-05-08 10:33:00,71.1,29.2,29.79,WNW,301,7.0,12.0,21,0.00,,---,0.00,VWS V14.00,2013-05-08 15:33:00,
2013-05-08 10:35:00,71.3,29.4,29.79,West,268,6.0,14.0,21,0.00,,---,0.00,VWS V14.00,2013-05-08 15:35:00,
2013-05-08 10:37:00,71.6,29.6,29.79,WNW,296,7.0,14.0,21,0.00,,---,0.00,VWS V14.00,2013-05-08 15:37:00,
2013-05-08 10:38:00,71.6,29.6,29.79,NW,312,14.0,14.0,21,0.00,,---,0.00,VWS V14.00,2013-05-08 15:38:00,
2013-05-08 10:40:00,71.6,29.6,29.79,NW,305,8.0,16.0,21,0.00,,---,0.00,VWS V14.00,2013-05-08 15:40:00,
2013-05-08 10:42:00,71.1,29.2,29.79,West,277,8.0,16.0,21,0.00,,---,0.00,VWS V14.00,2013-05-08 15:42:00,
2013-05-08 10:43:00,71.3,29.4,29.79,West,268,6.0,16.0,21,0.00,,---,0.00,VWS V14.00,2013-05-08 15:43:00,
2013-05-08 10:46:00,71.8,29.8,29.79,NNW,329,7.0,16.0,21,0.00,,---,0.00,VWS V14.00,2013-05-08 15:46:00,
2013-05-08 10:47:00,72.3,29.0,29.79,NW,306,10.0,16.0,20,0.00,,---,0.00,VWS V14.00,2013-05-08 15:47:00,
2013-05-08 10:48:00,72.1,28.9,29.79,WNW,301,0.0,16.0,20,0.00,,---,0.00,VWS V14.00,2013-05-08 15:48:00,
2013-05-08 10:51:00,72.1,30.0,29.79,NW,320,9.0,17.0,21,0.00,,---,0.00,VWS V14.00,2013-05-08 15:51:00,
2013-05-08 10:52:00,71.8,29.8,29.79,West,264,0.0,17.0,21,0.00,,---,0.00,VWS V14.00,2013-05-08 15:52:00,
2013-05-08 10:53:00,72.0,30.0,29.79,West,281,8.0,17.0,21,0.00,,---,0.00,VWS V14.00,2013-05-08 15:53:00,
2013-05-08 10:54:00,71.8,29.8,29.79,NW,308,10.0,17.0,21,0.00,,---,0.00,VWS V14.00,2013-05-08 15:54:00,
2013-05-08 10:56:00,71.6,29.6,29.79,NNW,343,10.0,17.0,21,0.00,,---,0.00,VWS V14.00,2013-05-08 15:56:00,
2013-05-08 10:57:00,71.5,28.4,29.79,West,270,9.0,17.0,20,0.00,,---,0.00,VWS V14.00,2013-05-08 15:57:00,
2013-05-08 10:59:00,70.9,27.9,29.79,WNW,285,7.0,17.0,20,0.00,,---,0.00,VWS V14.00,2013-05-08 15:59:00,
2013-05-08 11:01:00,71.3,28.2,29.79,NW,320,8.0,13.0,20,0.00,,---,0.00,VWS V14.00,2013-05-08 16:01:00,
2013-05-08 11:03:00,71.3,28.2,29.79,North,359,5.0,13.0,20,0.00,,---,0.00,VWS V14.00,2013-05-08 16:03:00,
2013-05-08 11:04:00,71.5,28.4,29.79,NW,325,7.0,13.0,20,0.00,,---,0.00,VWS V14.00,2013-05-08 16:04:00,
2013-05-08 11:07:00,71.8,28.6,29.79,NW,304,8.0,13.0,20,0.00,,---,0.00,VWS V14.00,2013-05-08 16:07:00,
2013-05-08 11:08:00,72.0,30.0,29.79,NNW,347,11.0,13.0,21,0.00,,---,0.00,VWS V14.00,2013-05-08 16:08:00,
2013-05-08 11:09:00,72.0,30.0,29.79,NNW,337,6.0,13.0,21,0.00,,---,0.00,VWS V14.00,2013-05-08 16:09:00,
2013-05-08 11:12:00,72.5,29.2,29.79,NNW,328,11.0,13.0,20,0.00,,---,0.00,VWS V14.00,2013-05-08 16:12:00,
2013-05-08 11:13:00,72.3,29.0,29.79,NNW,343,6.0,13.0,20,0.00,,---,0.00,VWS V14.00,2013-05-08 16:13:00,
2013-05-08 11:14:00,72.5,29.2,29.80,NNW,340,6.0,13.0,20,0.00,,---,0.00,VWS V14.00,2013-05-08 16:14:00,
2013-05-08 11:17:00,73.2,29.8,29.80,WNW,291,6.0,13.0,20,0.00,,---,0.00,VWS V14.00,2013-05-08 16:17:00,
2013-05-08 11:18:00,73.2,29.8,29.80,NW,306,5.0,13.0,20,0.00,,---,0.00,VWS V14.00,2013-05-08 16:18:00,
2013-05-08 11:19:00,73.2,29.8,29.80,WSW,254,7.0,13.0,20,0.00,,---,0.00,VWS V14.00,2013-05-08 16:19:00,
2013-05-08 11:23:00,73.2,27.2,29.80,NW,305,7.0,17.0,18,0.00,,---,0.00,VWS V14.00,2013-05-08 16:23:00,
2013-05-08 11:24:00,73.0,28.3,29.80,NW,320,5.0,17.0,19,0.00,,---,0.00,VWS V14.00,2013-05-08 16:24:00,
2013-05-08 11:25:00,73.2,28.5,29.80,North,354,0.0,17.0,19,0.00,,---,0.00,VWS V14.00,2013-05-08 16:25:00,
2013-05-08 11:28:00,73.7,27.6,29.80,West,272,0.0,17.0,18,0.00,,---,0.00,VWS V14.00,2013-05-08 16:28:00,
2013-05-08 11:29:00,73.5,26.1,29.78,West,278,8.0,17.0,17,0.00,,---,0.00,VWS V14.00,2013-05-08 16:29:00,
2013-05-08 11:30:00,73.9,26.4,29.78,NW,316,12.0,14.0,17,0.00,,---,0.00,VWS V14.00,2013-05-08 16:30:00,
2013-05-08 11:33:00,74.0,26.5,29.78,West,267,8.0,14.0,17,0.00,,---,0.00,VWS V14.00,2013-05-08 16:33:00,
2013-05-08 11:34:00,73.9,27.8,29.78,WNW,292,7.0,14.0,18,0.00,,---,0.00,VWS V14.00,2013-05-08 16:34:00,
2013-05-08 11:35:00,73.5,27.4,29.78,WNW,284,9.0,14.0,18,0.00,,---,0.00,VWS V14.00,2013-05-08 16:35:00,
2013-05-08 11:38:00,73.7,26.2,29.78,WNW,296,0.0,14.0,17,0.00,,---,0.00,VWS V14.00,2013-05-08 16:38:00,
2013-05-08 11:39:00,73.7,26.2,29.78,WNW,296,0.0,14.0,17,0.00,,---,0.00,VWS V14.00,2013-05-08 16:39:00,
2013-05-08 11:40:00,73.9,26.4,29.78,SW,215,0.0,14.0,17,0.00,,---,0.00,VWS V14.00,2013-05-08 16:40:00,
2013-05-08 11:43:00,74.6,23.9,29.79,West,277,0.0,14.0,15,0.00,,---,0.00,VWS V14.00,2013-05-08 16:43:00,
2013-05-08 11:44:00,74.7,24.0,29.79,WSW,240,7.0,14.0,15,0.00,,---,0.00,VWS V14.00,2013-05-08 16:44:00,
2013-05-08 11:45:00,74.9,25.7,29.79,SW,233,10.0,14.0,16,0.00,,---,0.00,VWS V14.00,2013-05-08 16:45:00,
2013-05-08 11:48:00,74.6,23.9,29.79,SW,223,16.0,16.0,15,0.00,,---,0.00,VWS V14.00,2013-05-08 16:48:00,
2013-05-08 11:49:00,74.6,23.9,29.79,SW,236,11.0,16.0,15,0.00,,---,0.00,VWS V14.00,2013-05-08 16:49:00,
2013-05-08 11:50:00,74.9,24.2,29.79,West,275,8.0,16.0,15,0.00,,---,0.00,VWS V14.00,2013-05-08 16:50:00,
2013-05-08 11:51:00,74.9,22.5,29.79,SW,223,5.0,16.0,14,0.00,,---,0.00,VWS V14.00,2013-05-08 16:51:00,
2013-05-08 11:53:00,74.9,24.2,29.79,SW,229,11.0,19.0,15,0.00,,---,0.00,VWS V14.00,2013-05-08 16:53:00,
2013-05-08 11:54:00,74.9,24.2,29.79,WSW,251,5.0,19.0,15,0.00,,---,0.00,VWS V14.00,2013-05-08 16:54:00,
2013-05-08 11:55:00,75.3,26.0,29.79,West,275,7.0,19.0,16,0.00,,---,0.00,VWS V14.00,2013-05-08 16:55:00,
2013-05-08 11:56:00,74.9,24.2,29.79,West,264,11.0,19.0,15,0.00,,---,0.00,VWS V14.00,2013-05-08 16:56:00,
2013-05-08 11:58:00,74.7,24.0,29.79,West,278,10.0,19.0,15,0.00,,---,0.00,VWS V14.00,2013-05-08 16:58:00,
2013-05-08 11:59:00,74.7,22.4,29.79,WSW,254,6.0,19.0,14,0.00,,---,0.00,VWS V14.00,2013-05-08 16:59:00,
2013-05-08 12:00:00,74.9,20.8,29.79,West,274,8.0,13.0,13,0.00,,---,0.00,VWS V14.00,2013-05-08 17:00:00,
2013-05-08 12:01:00,75.1,20.9,29.79,SW,222,12.0,13.0,13,0.00,,---,0.00,VWS V14.00,2013-05-08 17:01:00,
2013-05-08 12:04:00,74.4,20.4,29.79,SW,223,3.0,13.0,13,0.00,,---,0.00,VWS V14.00,2013-05-08 17:04:00,
2013-05-08 12:05:00,74.6,20.5,29.79,West,268,0.0,13.0,13,0.00,,---,0.00,VWS V14.00,2013-05-08 17:05:00,
2013-05-08 12:06:00,74.7,22.4,29.79,WNW,284,12.0,13.0,14,0.00,,---,0.00,VWS V14.00,2013-05-08 17:06:00,
2013-05-08 12:09:00,74.7,20.6,29.79,West,265,0.0,13.0,13,0.00,,---,0.00,VWS V14.00,2013-05-08 17:09:00,
2013-05-08 12:10:00,74.7,20.6,29.79,South,186,0.0,13.0,13,0.00,,---,0.00,VWS V14.00,2013-05-08 17:10:00,
2013-05-08 12:11:00,74.7,20.6,29.79,SW,229,6.0,13.0,13,0.00,,---,0.00,VWS V14.00,2013-05-08 17:11:00,
2013-05-08 12:14:00,74.0,20.1,29.81,West,260,11.0,16.0,13,0.00,,---,0.00,VWS V14.00,2013-05-08 17:14:00,
2013-05-08 12:15:00,74.4,20.4,29.81,SW,232,2.0,16.0,13,0.00,,---,0.00,VWS V14.00,2013-05-08 17:15:00,
2013-05-08 12:16:00,74.2,22.0,29.81,SSW,195,8.0,16.0,14,0.00,,---,0.00,VWS V14.00,2013-05-08 17:16:00,
2013-05-08 12:19:00,73.9,21.7,29.81,West,280,2.0,16.0,14,0.00,,---,0.00,VWS V14.00,2013-05-08 17:19:00,
2013-05-08 12:20:00,74.0,25.0,29.81,West,280,12.0,16.0,16,0.00,,---,0.00,VWS V14.00,2013-05-08 17:20:00,
2013-05-08 12:21:00,73.7,24.8,29.81,WSW,240,17.0,17.0,16,0.00,,---,0.00,VWS V14.00,2013-05-08 17:21:00,
2013-05-08 12:24:00,73.9,18.1,29.81,SW,224,10.0,18.0,12,0.00,,---,0.00,VWS V14.00,2013-05-08 17:24:00,
2013-05-08 12:25:00,73.9,18.1,29.81,West,265,12.0,18.0,12,0.00,,---,0.00,VWS V14.00,2013-05-08 17:25:00,
2013-05-08 12:26:00,73.9,18.1,29.81,WNW,285,7.0,18.0,12,0.00,,---,0.00,VWS V14.00,2013-05-08 17:26:00,
2013-05-08 12:29:00,75.1,19.1,29.81,West,263,11.0,11.0,12,0.00,,---,0.00,VWS V14.00,2013-05-08 17:29:00,
2013-05-08 12:30:00,75.1,19.1,29.81,SW,236,0.0,11.0,12,0.00,,---,0.00,VWS V14.00,2013-05-08 17:30:00,
2013-05-08 12:31:00,75.3,19.2,29.81,West,277,10.0,14.0,12,0.00,,---,0.00,VWS V14.00,2013-05-08 17:31:00,
2013-05-08 12:34:00,75.3,21.1,29.81,SW,215,10.0,14.0,13,0.00,,---,0.00,VWS V14.00,2013-05-08 17:34:00,
2013-05-08 12:35:00,75.1,20.9,29.81,NW,309,12.0,14.0,13,0.00,,---,0.00,VWS V14.00,2013-05-08 17:35:00,
2013-05-08 12:36:00,75.1,22.7,29.81,West,272,5.0,14.0,14,0.00,,---,0.00,VWS V14.00,2013-05-08 17:36:00,
2013-05-08 12:39:00,74.7,20.6,29.81,WNW,287,10.0,14.0,13,0.00,,---,0.00,VWS V14.00,2013-05-08 17:39:00,
2013-05-08 12:40:00,74.7,20.6,29.81,West,275,5.0,14.0,13,0.00,,---,0.00,VWS V14.00,2013-05-08 17:40:00,
2013-05-08 12:41:00,74.4,18.5,29.81,West,281,0.0,14.0,12,0.00,,---,0.00,VWS V14.00,2013-05-08 17:41:00,
2013-05-08 12:42:00,74.7,20.6,29.81,South,186,0.0,14.0,13,0.00,,---,0.00,VWS V14.00,2013-05-08 17:42:00,
2013-05-08 12:45:00,74.7,20.6,29.79,West,274,0.0,14.0,13,0.00,,---,0.00,VWS V14.00,2013-05-08 17:45:00,
2013-05-08 12:46:00,74.9,22.5,29.79,West,271,12.0,14.0,14,0.00,,---,0.00,VWS V14.00,2013-05-08 17:46:00,
2013-05-08 12:47:00,75.1,22.7,29.79,WNW,287,12.0,14.0,14,0.00,,---,0.00,VWS V14.00,2013-05-08 17:47:00,
2013-05-08 12:50:00,74.4,16.5,29.79,West,263,12.0,19.0,11,0.00,,---,0.00,VWS V14.00,2013-05-08 17:50:00,
2013-05-08 12:52:00,74.6,16.7,29.79,SW,229,5.0,19.0,11,0.00,,---,0.00,VWS V14.00,2013-05-08 17:52:00,
2013-05-08 12:55:00,75.3,17.2,29.79,SW,227,16.0,19.0,11,0.00,,---,0.00,VWS V14.00,2013-05-08 17:55:00,
2013-05-08 12:56:00,74.9,16.9,29.79,WNW,284,13.0,20.0,11,0.00,,---,0.00,VWS V14.00,2013-05-08 17:56:00,
2013-05-08 12:57:00,74.7,16.7,29.79,WSW,258,11.0,20.0,11,0.00,,---,0.00,VWS V14.00,2013-05-08 17:57:00,
2013-05-08 12:58:00,73.9,18.1,29.79,West,261,7.0,22.0,12,0.00,,---,0.00,VWS V14.00,2013-05-08 17:58:00,
2013-05-08 13:00:00,74.2,20.2,29.80,WSW,250,0.0,11.0,13,0.00,,---,0.00,VWS V14.00,2013-05-08 18:00:00,
2013-05-08 13:01:00,74.2,18.4,29.80,West,270,12.0,19.0,12,0.00,,---,0.00,VWS V14.00,2013-05-08 18:01:00,
2013-05-08 13:02:00,74.2,20.2,29.80,SW,234,6.0,19.0,13,0.00,,---,0.00,VWS V14.00,2013-05-08 18:02:00,
2013-05-08 13:03:00,74.6,20.5,29.80,WSW,244,1.0,19.0,13,0.00,,---,0.00,VWS V14.00,2013-05-08 18:03:00,
2013-05-08 13:05:00,74.4,18.5,29.80,West,278,11.0,19.0,12,0.00,,---,0.00,VWS V14.00,2013-05-08 18:05:00,
2013-05-08 13:06:00,74.0,18.2,29.80,West,280,7.0,19.0,12,0.00,,---,0.00,VWS V14.00,2013-05-08 18:06:00,
2013-05-08 13:07:00,74.0,20.1,29.80,WSW,250,5.0,19.0,13,0.00,,---,0.00,VWS V14.00,2013-05-08 18:07:00,
2013-05-08 13:08:00,74.0,20.1,29.80,West,281,7.0,19.0,13,0.00,,---,0.00,VWS V14.00,2013-05-08 18:08:00,
2013-05-08 13:10:00,73.9,21.7,29.80,West,270,7.0,19.0,14,0.00,,---,0.00,VWS V14.00,2013-05-08 18:10:00,
2013-05-08 13:11:00,74.0,20.1,29.80,West,261,0.0,19.0,13,0.00,,---,0.00,VWS V14.00,2013-05-08 18:11:00,
2013-05-08 13:12:00,74.9,20.8,29.80,SW,223,3.0,19.0,13,0.00,,---,0.00,VWS V14.00,2013-05-08 18:12:00,
2013-05-08 13:13:00,75.1,20.9,29.80,WNW,284,6.0,19.0,13,0.00,,---,0.00,VWS V14.00,2013-05-08 18:13:00,
2013-05-08 13:16:00,76.5,22.0,29.80,WSW,254,0.0,19.0,13,0.00,,---,0.00,VWS V14.00,2013-05-08 18:16:00,
2013-05-08 13:17:00,76.0,19.8,29.80,West,275,9.0,19.0,12,0.00,,---,0.00,VWS V14.00,2013-05-08 18:17:00,
2013-05-08 13:18:00,76.5,20.2,29.80,West,280,14.0,19.0,12,0.00,,---,0.00,VWS V14.00,2013-05-08 18:18:00,
2013-05-08 13:21:00,76.5,20.2,29.80,West,274,2.0,19.0,12,0.00,,---,0.00,VWS V14.00,2013-05-08 18:21:00,
2013-05-08 13:22:00,76.7,18.3,29.80,WSW,247,13.0,19.0,11,0.00,,---,0.00,VWS V14.00,2013-05-08 18:22:00,
2013-05-08 13:23:00,76.8,20.4,29.80,West,277,4.0,19.0,12,0.00,,---,0.00,VWS V14.00,2013-05-08 18:23:00,
2013-05-08 13:26:00,76.0,15.6,29.80,WSW,253,16.0,21.0,10,0.00,,---,0.00,VWS V14.00,2013-05-08 18:26:00,
2013-05-08 13:27:00,76.5,18.1,29.80,WNW,288,14.0,21.0,11,0.00,,---,0.00,VWS V14.00,2013-05-08 18:27:00,
2013-05-08 13:28:00,76.5,18.1,29.80,WSW,253,2.0,21.0,11,0.00,,---,0.00,VWS V14.00,2013-05-08 18:28:00,
2013-05-08 13:29:00,76.1,17.8,29.79,West,280,1.0,21.0,11,0.00,,---,0.00,VWS V14.00,2013-05-08 18:29:00,
2013-05-08 13:31:00,76.7,18.3,29.79,West,261,0.0,10.0,11,0.00,,---,0.00,VWS V14.00,2013-05-08 18:31:00,
2013-05-08 13:32:00,76.8,18.4,29.79,WSW,250,3.0,10.0,11,0.00,,---,0.00,VWS V14.00,2013-05-08 18:32:00,
2013-05-08 13:33:00,77.4,18.8,29.79,SSW,209,5.0,14.0,11,0.00,,---,0.00,VWS V14.00,2013-05-08 18:33:00,
2013-05-08 13:34:00,78.1,19.4,29.79,SW,233,8.0,18.0,11,0.00,,---,0.00,VWS V14.00,2013-05-08 18:34:00,
2013-05-08 13:36:00,77.6,16.8,29.79,WSW,250,12.0,19.0,10,0.00,,---,0.00,VWS V14.00,2013-05-08 18:36:00,
2013-05-08 13:37:00,77.2,16.5,29.79,West,261,7.0,19.0,10,0.00,,---,0.00,VWS V14.00,2013-05-08 18:37:00,
2013-05-08 13:38:00,77.2,16.5,29.79,West,260,7.0,19.0,10,0.00,,---,0.00,VWS V14.00,2013-05-08 18:38:00,
2013-05-08 13:39:00,77.4,16.6,29.79,SW,233,6.0,19.0,10,0.00,,---,0.00,VWS V14.00,2013-05-08 18:39:00,
2013-05-08 13:42:00,77.7,16.8,29.79,SW,220,8.0,19.0,10,0.00,,---,0.00,VWS V14.00,2013-05-08 18:42:00,
2013-05-08 13:43:00,77.9,17.0,29.79,West,274,6.0,19.0,10,0.00,,---,0.00,VWS V14.00,2013-05-08 18:43:00,
2013-05-08 13:44:00,77.6,14.4,29.77,West,274,7.0,19.0,9,0.00,,---,0.00,VWS V14.00,2013-05-08 18:44:00,
2013-05-08 13:47:00,77.9,17.0,29.77,SW,223,5.0,19.0,10,0.00,,---,0.00,VWS V14.00,2013-05-08 18:47:00,
2013-05-08 13:48:00,78.1,17.1,29.77,WNW,285,7.0,19.0,10,0.00,,---,0.00,VWS V14.00,2013-05-08 18:48:00,
2013-05-08 13:49:00,77.7,16.8,29.77,WNW,296,8.0,19.0,10,0.00,,---,0.00,VWS V14.00,2013-05-08 18:49:00,
2013-05-08 13:52:00,78.1,17.1,29.77,WNW,298,16.0,19.0,10,0.00,,---,0.00,VWS V14.00,2013-05-08 18:52:00,
2013-05-08 13:53:00,77.6,16.8,29.77,West,278,9.0,22.0,10,0.00,,---,0.00,VWS V14.00,2013-05-08 18:53:00,
2013-05-08 13:54:00,77.6,16.8,29.77,West,268,11.0,22.0,10,0.00,,---,0.00,VWS V14.00,2013-05-08 18:54:00,
2013-05-08 13:57:00,76.8,13.8,29.77,West,264,14.0,22.0,9,0.00,,---,0.00,VWS V14.00,2013-05-08 18:57:00,
2013-05-08 13:58:00,76.3,13.4,29.78,WSW,237,8.0,22.0,9,0.00,,---,0.00,VWS V14.00,2013-05-08 18:58:00,
2013-05-08 13:59:00,77.0,16.3,29.78,WNW,289,17.0,17.0,10,0.00,,---,0.00,VWS V14.00,2013-05-08 18:59:00,
2013-05-08 14:00:00,76.7,16.1,29.78,WNW,295,17.0,22.0,10,0.00,,---,0.00,VWS V14.00,2013-05-08 19:00:00,
2013-05-08 14:02:00,76.1,17.8,29.78,West,275,7.0,22.0,11,0.00,,---,0.00,VWS V14.00,2013-05-08 19:02:00,
2013-05-08 14:03:00,76.5,20.2,29.78,West,263,11.0,22.0,12,0.00,,---,0.00,VWS V14.00,2013-05-08 19:03:00,
2013-05-08 14:04:00,76.8,20.4,29.78,West,261,6.0,22.0,12,0.00,,---,0.00,VWS V14.00,2013-05-08 19:04:00,
2013-05-08 14:05:00,77.0,20.5,29.78,WNW,284,8.0,22.0,12,0.00,,---,0.00,VWS V14.00,2013-05-08 19:05:00,
2013-05-08 14:07:00,76.7,18.3,29.78,West,264,11.0,22.0,11,0.00,,---,0.00,VWS V14.00,2013-05-08 19:07:00,
2013-05-08 14:08:00,76.8,16.2,29.78,WSW,257,0.0,22.0,10,0.00,,---,0.00,VWS V14.00,2013-05-08 19:08:00,
2013-05-08 14:09:00,77.0,18.5,29.78,West,275,0.0,22.0,11,0.00,,---,0.00,VWS V14.00,2013-05-08 19:09:00,
2013-05-08 14:10:00,77.6,19.0,29.78,WNW,298,11.0,22.0,11,0.00,,---,0.00,VWS V14.00,2013-05-08 19:10:00,
2013-05-08 14:12:00,77.2,18.7,29.78,WSW,247,10.0,22.0,11,0.00,,---,0.00,VWS V14.00,2013-05-08 19:12:00,
2013-05-08 14:14:00,76.5,18.1,29.79,WSW,239,3.0,22.0,11,0.00,,---,0.00,VWS V14.00,2013-05-08 19:14:00,
2013-05-08 14:15:00,76.7,20.3,29.79,WNW,291,0.0,22.0,12,0.00,,---,0.00,VWS V14.00,2013-05-08 19:15:00,
2013-05-08 14:16:00,77.0,18.5,29.79,West,267,10.0,22.0,11,0.00,,---,0.00,VWS V14.00,2013-05-08 19:16:00,
2013-05-08 14:18:00,77.2,18.7,29.79,WNW,289,2.0,22.0,11,0.00,,---,0.00,VWS V14.00,2013-05-08 19:18:00,
2013-05-08 14:19:00,77.4,18.8,29.79,WNW,292,8.0,22.0,11,0.00,,---,0.00,VWS V14.00,2013-05-08 19:19:00,
2013-05-08 14:21:00,78.1,19.4,29.79,WNW,294,13.0,22.0,11,0.00,,---,0.00,VWS V14.00,2013-05-08 19:21:00,
2013-05-08 14:23:00,77.7,16.8,29.79,WNW,296,15.0,22.0,10,0.00,,---,0.00,VWS V14.00,2013-05-08 19:23:00,
2013-05-08 14:24:00,76.8,16.2,29.79,West,265,20.0,22.0,10,0.00,,---,0.00,VWS V14.00,2013-05-08 19:24:00,
2013-05-08 14:25:00,76.7,16.1,29.79,WSW,257,5.0,22.0,10,0.00,,---,0.00,VWS V14.00,2013-05-08 19:25:00,
2013-05-08 14:26:00,76.8,16.2,29.79,WNW,282,7.0,22.0,10,0.00,,---,0.00,VWS V14.00,2013-05-08 19:26:00,
2013-05-08 14:29:00,77.9,17.0,29.78,SSW,205,13.0,22.0,10,0.00,,---,0.00,VWS V14.00,2013-05-08 19:29:00,
2013-05-08 14:30:00,78.1,17.1,29.78,SSW,193,4.0,14.0,10,0.00,,---,0.00,VWS V14.00,2013-05-08 19:30:00,
2013-05-08 14:31:00,77.9,17.0,29.78,SSW,198,6.0,14.0,10,0.00,,---,0.00,VWS V14.00,2013-05-08 19:31:00,
2013-05-08 14:34:00,77.9,17.0,29.78,WNW,295,12.0,14.0,10,0.00,,---,0.00,VWS V14.00,2013-05-08 19:34:00,
2013-05-08 14:35:00,77.9,17.0,29.78,West,274,7.0,14.0,10,0.00,,---,0.00,VWS V14.00,2013-05-08 19:35:00,
2013-05-08 14:36:00,77.7,16.8,29.78,WNW,285,10.0,14.0,10,0.00,,---,0.00,VWS V14.00,2013-05-08 19:36:00,
2013-05-08 14:39:00,78.5,17.5,29.78,SW,230,12.0,14.0,10,0.00,,---,0.00,VWS V14.00,2013-05-08 19:39:00,
2013-05-08 14:40:00,78.5,17.5,29.78,SSW,213,0.0,14.0,10,0.00,,---,0.00,VWS V14.00,2013-05-08 19:40:00,
2013-05-08 14:41:00,78.6,17.5,29.78,WSW,257,0.0,14.0,10,0.00,,---,0.00,VWS V14.00,2013-05-08 19:41:00,
2013-05-08 14:42:00,78.3,19.5,29.78,West,281,2.0,14.0,11,0.00,,---,0.00,VWS V14.00,2013-05-08 19:42:00,
2013-05-08 14:44:00,78.5,21.7,29.77,SW,236,1.0,14.0,12,0.00,,---,0.00,VWS V14.00,2013-05-08 19:44:00,
2013-05-08 14:45:00,78.1,21.4,29.77,WNW,301,6.0,17.0,12,0.00,,---,0.00,VWS V14.00,2013-05-08 19:45:00,
2013-05-08 14:46:00,78.3,19.5,29.77,WSW,239,16.0,17.0,11,0.00,,---,0.00,VWS V14.00,2013-05-08 19:46:00,
2013-05-08 14:47:00,78.3,19.5,29.77,SW,236,11.0,17.0,11,0.00,,---,0.00,VWS V14.00,2013-05-08 19:47:00,
2013-05-08 14:49:00,77.9,21.2,29.77,SSW,199,16.0,19.0,12,0.00,,---,0.00,VWS V14.00,2013-05-08 19:49:00,
2013-05-08 14:50:00,77.9,21.2,29.77,SSW,200,13.0,19.0,12,0.00,,---,0.00,VWS V14.00,2013-05-08 19:50:00,
2013-05-08 14:51:00,77.9,21.2,29.77,South,186,12.0,19.0,12,0.00,,---,0.00,VWS V14.00,2013-05-08 19:51:00,
2013-05-08 14:52:00,77.6,21.0,29.77,SSW,192,14.0,19.0,12,0.00,,---,0.00,VWS V14.00,2013-05-08 19:52:00,
2013-05-08 14:54:00,77.6,21.0,29.77,SSW,198,0.0,19.0,12,0.00,,---,0.00,VWS V14.00,2013-05-08 19:54:00,
2013-05-08 14:55:00,77.6,21.0,29.77,SSW,198,0.0,19.0,12,0.00,,---,0.00,VWS V14.00,2013-05-08 19:55:00,
2013-05-08 14:56:00,77.7,21.1,29.77,WSW,253,0.0,19.0,12,0.00,,---,0.00,VWS V14.00,2013-05-08 19:56:00,
2013-05-08 14:57:00,78.1,21.4,29.77,WSW,257,10.0,19.0,12,0.00,,---,0.00,VWS V14.00,2013-05-08 19:57:00,
2013-05-08 14:59:00,78.3,21.6,29.77,SSW,200,22.0,22.0,12,0.00,,---,0.00,VWS V14.00,2013-05-08 19:59:00,
2013-05-08 15:00:00,77.9,19.2,29.77,SSW,198,10.0,22.0,11,0.00,,---,0.00,VWS V14.00,2013-05-08 20:00:00,
2013-05-08 15:01:00,77.7,19.0,29.77,South,186,10.0,22.0,11,0.00,,---,0.00,VWS V14.00,2013-05-08 20:01:00,
2013-05-08 15:02:00,77.9,19.2,29.77,South,186,3.0,22.0,11,0.00,,---,0.00,VWS V14.00,2013-05-08 20:02:00,
2013-05-08 15:05:00,78.3,23.5,29.77,SSW,205,7.0,22.0,13,0.00,,---,0.00,VWS V14.00,2013-05-08 20:05:00,
2013-05-08 15:06:00,78.6,23.7,29.77,NW,309,3.0,22.0,13,0.00,,---,0.00,VWS V14.00,2013-05-08 20:06:00,
2013-05-08 15:07:00,78.8,22.0,29.77,WSW,241,2.0,22.0,12,0.00,,---,0.00,VWS V14.00,2013-05-08 20:07:00,
2013-05-08 15:10:00,78.5,21.7,29.77,SW,233,7.0,22.0,12,0.00,,---,0.00,VWS V14.00,2013-05-08 20:10:00,
2013-05-08 15:11:00,78.5,21.7,29.77,West,260,2.0,22.0,12,0.00,,---,0.00,VWS V14.00,2013-05-08 20:11:00,
2013-05-08 15:12:00,78.5,21.7,29.77,SW,236,10.0,22.0,12,0.00,,---,0.00,VWS V14.00,2013-05-08 20:12:00,
2013-05-08 15:13:00,78.3,21.6,29.77,WSW,250,3.0,22.0,12,0.00,,---,0.00,VWS V14.00,2013-05-08 20:13:00,
2013-05-08 15:15:00,77.9,23.1,29.77,West,271,1.0,22.0,13,0.00,,---,0.00,VWS V14.00,2013-05-08 20:15:00,
2013-05-08 15:16:00,77.9,23.1,29.77,SSW,202,3.0,22.0,13,0.00,,---,0.00,VWS V14.00,2013-05-08 20:16:00,
2013-05-08 15:17:00,78.3,23.5,29.77,South,175,0.0,22.0,13,0.00,,---,0.00,VWS V14.00,2013-05-08 20:17:00,
2013-05-08 15:18:00,78.1,23.3,29.77,SSW,212,0.0,22.0,13,0.00,,---,0.00,VWS V14.00,2013-05-08 20:18:00,
2013-05-08 15:20:00,78.6,19.8,29.77,West,264,1.0,22.0,11,0.00,,---,0.00,VWS V14.00,2013-05-08 20:20:00,
2013-05-08 15:21:00,78.5,21.7,29.77,SSW,210,1.0,22.0,12,0.00,,---,0.00,VWS V14.00,2013-05-08 20:21:00,
2013-05-08 15:22:00,78.5,23.6,29.77,SSW,205,3.0,22.0,13,0.00,,---,0.00,VWS V14.00,2013-05-08 20:22:00,
2013-05-08 15:23:00,77.9,23.1,29.77,South,185,11.0,22.0,13,0.00,,---,0.00,VWS V14.00,2013-05-08 20:23:00,
2013-05-08 15:25:00,78.3,23.5,29.77,WNW,302,8.0,22.0,13,0.00,,---,0.00,VWS V14.00,2013-05-08 20:25:00,
2013-05-08 15:26:00,78.5,23.6,29.77,WNW,284,0.0,22.0,13,0.00,,---,0.00,VWS V14.00,2013-05-08 20:26:00,
2013-05-08 15:27:00,78.6,23.7,29.77,WSW,258,0.0,22.0,13,0.00,,---,0.00,VWS V14.00,2013-05-08 20:27:00,
2013-05-08 15:28:00,78.6,23.7,29.77,SSE,164,0.0,22.0,13,0.00,,---,0.00,VWS V14.00,2013-05-08 20:28:00,
2013-05-08 15:31:00,78.8,23.9,29.75,West,272,9.0,16.0,13,0.00,,---,0.00,VWS V14.00,2013-05-08 20:31:00,
2013-05-08 15:33:00,78.3,23.5,29.75,WNW,299,10.0,16.0,13,0.00,,---,0.00,VWS V14.00,2013-05-08 20:33:00,
2013-05-08 15:36:00,78.3,23.5,29.75,NW,315,0.0,16.0,13,0.00,,---,0.00,VWS V14.00,2013-05-08 20:36:00,
2013-05-08 15:38:00,77.9,23.1,29.75,NW,320,0.0,16.0,13,0.00,,---,0.00,VWS V14.00,2013-05-08 20:38:00,
2013-05-08 15:41:00,78.1,23.3,29.75,West,275,5.0,16.0,13,0.00,,---,0.00,VWS V14.00,2013-05-08 20:41:00,
2013-05-08 15:43:00,78.5,23.6,29.75,West,272,3.0,16.0,13,0.00,,---,0.00,VWS V14.00,2013-05-08 20:43:00,
2013-05-08 15:47:00,79.4,22.4,29.74,WSW,243,5.0,16.0,12,0.00,,---,0.00,VWS V14.00,2013-05-08 20:47:00,
2013-05-08 15:48:00,78.6,23.7,29.74,West,274,11.0,17.0,13,0.00,,---,0.00,VWS V14.00,2013-05-08 20:48:00,
2013-05-08 15:49:00,78.6,23.7,29.74,WNW,289,10.0,17.0,13,0.00,,---,0.00,VWS V14.00,2013-05-08 20:49:00,
2013-05-08 15:52:00,78.6,23.7,29.74,West,275,0.0,17.0,13,0.00,,---,0.00,VWS V14.00,2013-05-08 20:52:00,
2013-05-08 15:53:00,78.6,23.7,29.74,West,264,12.0,17.0,13,0.00,,---,0.00,VWS V14.00,2013-05-08 20:53:00,
2013-05-08 15:54:00,78.3,23.5,29.74,West,270,3.0,17.0,13,0.00,,---,0.00,VWS V14.00,2013-05-08 20:54:00,
2013-05-08 15:57:00,79.0,24.0,29.74,SSW,203,2.0,17.0,13,0.00,,---,0.00,VWS V14.00,2013-05-08 20:57:00,
2013-05-08 15:58:00,79.0,24.0,29.73,SSW,212,8.0,18.0,13,0.00,,---,0.00,VWS V14.00,2013-05-08 20:58:00,
2013-05-08 15:59:00,79.2,24.2,29.73,SSW,213,7.0,18.0,13,0.00,,---,0.00,VWS V14.00,2013-05-08 20:59:00,